1501322400.1,14378,18.44,74222.3,16.77,-22.21,-23.99,0,*41
1501322401.35,14379,18.44,74224.8,16.73,-23.33,-24.87,0,*4E
1501322402.61,14380,18.44,74220.8,16.67,-21.39,-23.03,0,*4E
1501322403.84,14381,18.38,74218.5,16.63,-22.97,-24.97,0,*46
1501322405.07,14382,18.44,74216.3,16.59,-22.83,-24.57,0,*45
1501322406.33,14383,18.44,74214.8,16.55,-21.93,-23.69,0,*40
1501322407.57,14384,18.44,74218.5,16.51,-23.43,-25.23,0,*44
1501322408.8,14385,18.44,74218.5,16.45,-22.31,-23.79,0,*4D
1501322410.04,14386,18.44,74218.3,16.43,-21.33,-22.93,0,*4C
1501322411.27,14387,18.44,74216.0,16.41,-21.17,-22.87,0,*4C
1501322412.51,14388,18.44,74216.0,16.39,-21.23,-22.83,0,*4F
1501322413.79,14389,18.44,74220.0,16.37,-19.65,-21.03,0,*42
1501322415.05,14390,18.44,74216.0,16.33,-19.85,-21.39,0,*49
1501322416.31,14391,18.44,74216.5,16.33,-19.75,-20.99,0,*4C
1501322417.59,14392,18.44,74222.3,16.33,-17.63,-18.93,0,*47
1501322418.82,14393,18.44,74220.8,16.33,-20.29,-21.13,0,*4E
1501322420.06,14394,18.44,74220.5,16.31,-24.05,-25.81,0,*4E
1501322421.3,14395,18.44,74226.8,16.27,-24.11,-25.19,0,*4C
1501322422.53,14396,18.44,74224.8,16.23,-21.09,-22.31,0,*4A
1501322423.81,14397,18.44,74226.5,16.19,-19.61,-20.53,0,*41
1501322425.06,14398,18.44,74224.0,16.21,-20.05,-21.33,0,*4A
1501322426.26,14399,18.44,74228.8,16.19,-20.25,-21.63,0,*47
1501322427.5,14400,18.44,74228.3,16.19,-19.81,-21.17,0,*47
1501322428.75,14401,18.44,74226.5,16.17,-18.21,-19.41,0,*4B
1501322429.96,14402,18.44,74228.3,16.19,-18.11,-19.47,0,*43
1501322431.2,14403,18.44,74224.8,16.21,-17.49,-18.49,0,*44
1501322432.43,14404,18.44,74224.8,16.21,-17.83,-18.99,0,*48
1501322433.64,14405,18.44,74222.5,16.23,-18.65,-19.99,0,*4D
1501322434.89,14406,18.44,74224.5,16.23,-18.93,-20.15,0,*49
1501322436.13,14407,18.44,74226.0,16.23,-18.65,-19.85,0,*42
1501322437.37,14408,18.44,74224.0,16.23,-16.75,-17.79,0,*4F
1501322438.57,14409,18.44,74222.0,16.23,-17.31,-18.45,0,*4F
1501322439.78,14410,18.44,74222.8,16.27,-17.87,-19.03,0,*4D
1501322441.01,14411,18.44,74222.5,16.27,-17.69,-18.89,0,*4F
1501322442.24,14412,18.44,74222.0,16.27,-16.93,-18.01,0,*48
1501322443.5,14413,18.44,74222.0,16.29,-17.55,-18.49,0,*40
1501322444.73,14414,18.44,74220.8,16.31,-15.85,-17.31,0,*41
1501322445.97,14415,18.44,74222.3,16.33,-16.37,-18.07,0,*42
1501322447.26,14416,18.44,74222.0,16.33,-14.79,-17.11,0,*41
1501322448.54,14417,18.44,74222.8,16.33,-15.21,-18.01,0,*42
1501322449.79,14418,18.44,74222.0,16.33,-15.07,-17.93,0,*4D
1501322451.05,14419,18.44,74224.0,16.37,-13.01,-15.75,0,*42
1501322452.31,14420,18.44,74220.8,16.39,-13.01,-15.21,0,*47
1501322453.55,14421,18.44,74224.3,16.41,-12.89,-15.11,0,*4B
1501322454.81,14422,18.44,74228.8,16.45,-12.71,-14.93,0,*40
1501322456.05,14423,18.44,74226.5,16.45,-14.55,-16.83,0,*42
1501322457.31,14424,18.44,74226.8,16.49,-14.47,-16.51,0,*45
1501322458.6,14425,18.44,74224.5,16.51,-15.35,-17.17,0,*4A
1501322459.84,14426,18.44,74230.0,16.51,-16.75,-18.45,0,*46
1501322461.12,14427,18.44,74226.3,16.51,-15.85,-17.25,0,*42
1501322462.36,14428,18.44,74228.0,16.51,-16.79,-18.07,0,*42
1501322463.59,14429,18.44,74230.3,16.53,-16.59,-17.93,0,*41
1501322464.82,14430,18.44,74230.5,16.53,-16.83,-18.01,0,*4A
1501322466.05,14431,18.44,74228.3,16.53,-15.99,-17.03,0,*4E
1501322467.25,14432,18.44,74228.8,16.53,-16.89,-17.87,0,*43
1501322468.48,14433,18.44,74232.0,16.59,-17.69,-18.79,0,*49
1501322469.76,14434,18.44,74232.0,16.55,-17.79,-18.93,0,*47
1501322471.01,14435,18.44,74228.8,16.55,-17.21,-18.25,0,*46
1501322472.27,14436,18.44,74232.0,16.59,-16.55,-17.55,0,*43
1501322473.53,14437,18.44,74228.3,16.59,-15.75,-16.65,0,*41
1501322474.75,14438,18.44,74230.8,16.61,-14.69,-15.57,0,*4B
1501322475.98,14439,18.44,74228.8,16.63,-14.69,-15.49,0,*47
1501322477.27,14440,18.44,74224.3,16.67,-13.79,-14.75,0,*45
1501322478.53,14441,18.44,74226.5,16.69,-13.97,-14.97,0,*46
1501322479.78,14442,18.44,74224.0,16.71,-14.97,-16.03,0,*44
1501322481.01,14443,18.44,74226.3,16.75,-15.25,-16.03,0,*49
1501322482.21,14444,18.44,74226.3,16.73,-15.53,-16.41,0,*4F
1501322483.46,14445,18.44,74224.5,16.83,-14.43,-15.29,0,*4C
1501322484.66,14446,18.44,74224.8,16.83,-15.11,-15.99,0,*42
1501322485.87,14447,18.44,74230.0,16.83,-16.45,-17.35,0,*45
1501322487.08,14448,18.44,74232.8,16.83,-16.79,-17.69,0,*4C
1501322488.29,14449,18.44,74232.5,16.83,-18.07,-19.17,0,*4D
1501322489.53,14450,18.44,74226.3,16.81,-19.47,-20.43,0,*49
1501322490.8,14451,18.44,74226.5,16.77,-20.35,-21.57,0,*4A
1501322492.06,14452,18.44,74220.8,16.75,-21.77,-23.19,0,*44
1501322493.29,14453,18.44,74222.8,16.73,-18.41,-19.31,0,*4F
1501322494.52,14454,18.44,74222.8,16.71,-18.45,-19.51,0,*48
1501322495.78,14455,18.44,74224.8,16.71,-17.21,-17.83,0,*45
1501322497.01,14456,18.44,74224.3,16.71,-16.93,-17.83,0,*4E
1501322498.27,14457,18.44,74224.5,16.71,-17.35,-18.55,0,*46
1501322499.53,14458,18.44,74234.0,16.71,-18.73,-19.85,0,*48
1501322500.73,14459,18.44,74232.0,16.69,-16.79,-17.83,0,*4C
1501322502.01,14460,18.44,74230.3,16.71,-16.51,-17.63,0,*4B
1501322503.29,14461,18.44,74232.0,16.71,-17.07,-18.01,0,*43
1501322504.49,14462,18.44,74230.8,16.73,-15.99,-16.89,0,*49
1501322505.72,14463,18.44,74226.8,16.73,-16.03,-17.03,0,*4B
1501322506.94,14464,18.44,74226.3,16.75,-15.99,-16.89,0,*49
1501322508.19,14465,18.44,74224.5,16.75,-15.01,-15.95,0,*47
1501322509.45,14466,18.44,74230.8,16.81,-17.55,-18.73,0,*49
1501322510.68,14467,18.44,74226.3,16.77,-17.73,-18.73,0,*45
1501322511.93,14468,18.44,74220.5,16.81,-16.93,-17.97,0,*49
1501322513.16,14469,18.44,74226.5,16.77,-18.45,-19.51,0,*40
1501322514.45,14470,18.44,74226.0,16.77,-18.59,-19.57,0,*43
1501322515.68,14471,18.44,74226.5,16.81,-16.59,-17.73,0,*4D
1501322516.91,14472,18.44,74226.8,16.81,-16.03,-16.97,0,*4A
1501322518.19,14473,18.44,74224.8,16.81,-15.57,-16.65,0,*44
1501322519.41,14474,18.44,74226.0,16.83,-17.69,-18.89,0,*42
1501322520.66,14475,18.44,74228.5,16.81,-17.11,-18.17,0,*49
1501322521.9,14476,18.44,74226.3,16.81,-16.37,-17.35,0,*40
1501322523.15,14477,18.44,74230.0,16.85,-15.15,-15.89,0,*43
1501322524.38,14478,18.44,74226.5,16.85,-15.15,-16.03,0,*4D
1501322525.66,14479,18.44,74230.8,16.89,-14.93,-15.85,0,*42
1501322526.92,14480,18.44,74230.3,16.87,-16.23,-17.11,0,*4C
1501322528.18,14481,18.44,74230.8,16.89,-16.83,-17.93,0,*43
1501322529.41,14482,18.44,74230.8,16.91,-18.79,-19.85,0,*4B
1501322530.62,14483,18.44,74228.0,16.87,-18.79,-19.91,0,*48
1501322531.88,14484,18.44,74228.3,16.85,-18.69,-19.65,0,*47
1501322533.11,14485,18.44,74228.5,16.85,-18.99,-20.05,0,*45
1501322534.37,14486,18.44,74230.8,16.81,-21.87,-23.09,0,*48
1501322535.63,14487,18.44,74230.0,16.77,-21.53,-22.87,0,*4E
1501322536.89,14488,18.44,74228.8,16.75,-21.73,-23.19,0,*47
1501322538.12,14489,18.44,74232.8,16.69,-23.39,-24.71,0,*4E
1501322539.37,14490,18.44,74228.0,16.61,-24.83,-26.17,0,*4A
1501322540.63,14491,18.44,74228.0,16.55,-23.03,-24.47,0,*44
1501322541.91,14492,18.44,74224.5,16.51,-23.23,-24.41,0,*47
1501322543.16,14493,18.44,74220.8,16.47,-19.51,-20.59,0,*40
1501322544.38,14494,18.44,74216.3,16.47,-20.29,-21.43,0,*48
1501322545.65,14495,18.44,74212.8,16.45,-21.23,-22.17,0,*42
1501322546.88,14496,18.44,74216.8,16.43,-20.39,-21.53,0,*4E
1501322548.11,14497,18.44,74222.5,16.41,-20.25,-21.47,0,*45
1501322549.33,14498,18.44,74222.5,16.39,-19.95,-21.17,0,*41
1501322550.56,14499,18.44,74218.3,16.39,-21.23,-22.37,0,*47
1501322551.79,14500,18.44,74216.5,16.33,-20.29,-21.43,0,*47
1501322553.06,14501,18.44,74214.8,16.37,-20.15,-21.53,0,*4C
1501322554.3,14502,18.44,74218.0,16.33,-20.39,-21.47,0,*40
1501322555.54,14503,18.44,74220.3,16.33,-18.83,-19.99,0,*43
1501322556.78,14504,18.44,74222.5,16.31,-19.95,-21.03,0,*48
1501322557.99,14505,18.44,74224.0,16.31,-18.99,-20.05,0,*43
1501322559.25,14506,18.44,74226.0,16.31,-18.35,-19.31,0,*4B
1501322560.5,14507,18.44,74224.0,16.29,-19.81,-21.09,0,*4D
1501322561.71,14508,18.44,74226.5,16.27,-19.95,-21.09,0,*49
1501322562.95,14509,18.44,74224.3,16.23,-18.69,-19.85,0,*41
1501322564.15,14510,18.44,74226.3,16.23,-20.05,-21.13,0,*4C
1501322565.38,14511,18.44,74224.0,16.21,-22.53,-24.05,0,*4C
1501322566.62,14512,18.44,74224.5,16.19,-22.57,-23.95,0,*4E
1501322567.89,14513,18.44,74228.0,16.15,-23.19,-24.71,0,*45
1501322569.11,14514,18.44,74232.3,16.11,-25.87,-27.61,0,*45
1501322570.31,14515,18.44,74230.8,16.03,-26.61,-28.37,0,*40
1501322571.56,14516,18.44,74228.3,15.97,-26.61,-28.21,0,*4A
1501322572.76,14517,18.44,74230.0,15.91,-25.13,-26.45,0,*47
1501322573.98,14518,18.44,74228.3,15.85,-25.39,-26.87,0,*4B
1501322575.21,14519,18.44,74224.3,15.83,-24.15,-25.61,0,*48
1501322576.46,14520,18.44,74228.3,15.81,-22.21,-23.39,0,*4A
1501322577.68,14521,18.44,74226.8,15.77,-21.03,-22.11,0,*4A
1501322578.9,14522,18.44,74220.5,15.77,-20.09,-21.33,0,*41
1501322580.17,14523,18.44,74226.5,15.75,-19.41,-20.49,0,*48
1501322581.41,14524,18.44,74222.3,15.77,-19.31,-20.43,0,*40
1501322582.66,14525,18.44,74226.8,15.79,-19.61,-20.69,0,*42
1501322583.89,14526,18.44,74222.5,15.79,-20.25,-21.47,0,*46
1501322585.11,14527,18.44,74222.5,15.77,-22.47,-23.89,0,*4F
1501322586.39,14528,18.44,74222.3,15.75,-24.25,-25.45,0,*46
1501322587.59,14529,18.44,74226.0,15.69,-21.17,-22.27,0,*4D
1501322588.82,14530,18.44,74224.0,15.69,-20.59,-21.83,0,*43
1501322590.04,14531,18.44,74228.3,15.69,-21.39,-22.47,0,*4E
1501322591.27,14532,18.44,74228.5,15.67,-19.95,-21.09,0,*47
1501322592.51,14533,18.44,74224.5,15.69,-19.31,-20.25,0,*49
1501322593.71,14534,18.44,74226.0,15.69,-19.47,-20.43,0,*4F
1501322594.92,14535,18.44,74228.8,15.69,-19.91,-20.89,0,*43
1501322596.17,14536,18.44,74226.5,15.67,-20.79,-22.03,0,*42
1501322597.43,14537,18.44,74220.5,15.67,-21.53,-22.67,0,*48
1501322598.7,14538,18.44,74228.0,15.67,-22.17,-23.43,0,*43
1501322599.93,14539,18.44,74226.8,15.61,-21.77,-23.03,0,*45
1501322601.16,14540,18.44,74230.5,15.59,-21.47,-22.57,0,*43
1501322602.41,14541,18.44,74232.0,15.55,-25.49,-26.93,0,*48
1501322603.64,14542,18.44,74228.8,15.51,-22.37,-23.39,0,*44
1501322604.85,14543,18.44,74226.5,15.49,-21.93,-23.09,0,*42
1501322606.09,14544,18.44,74224.3,15.49,-19.57,-20.63,0,*49
1501322607.29,14545,18.44,74226.0,15.49,-22.87,-24.31,0,*4E
1501322608.54,14546,18.44,74228.3,15.45,-22.83,-24.21,0,*44
1501322609.79,14547,18.44,74226.5,15.45,-20.73,-21.87,0,*41
1501322611.04,14548,18.44,74224.3,15.45,-20.93,-21.97,0,*41
1501322612.24,14549,18.44,74226.8,15.39,-19.95,-21.13,0,*4B
1501322613.48,14550,18.44,74224.8,15.45,-19.51,-20.59,0,*4F
1501322614.71,14551,18.44,74226.3,15.43,-19.75,-20.83,0,*49
1501322615.91,14552,18.5,74226.8,15.43,-20.59,-21.73,0,*40
1501322617.13,14553,18.5,74226.5,15.39,-20.53,-21.77,0,*42
1501322618.37,14554,18.44,74220.3,15.43,-20.43,-21.53,0,*4F
1501322619.57,14555,18.44,74224.8,15.43,-20.69,-21.93,0,*4A
1501322620.8,14556,18.44,74224.8,15.39,-20.89,-21.97,0,*4E
1501322622.08,14557,18.44,74228.3,15.37,-21.23,-22.31,0,*4F
1501322623.28,14558,18.44,74230.3,15.35,-20.25,-21.39,0,*4E
1501322624.53,14559,18.44,74224.8,15.37,-19.65,-20.69,0,*47
1501322625.78,14560,18.44,74226.3,15.35,-19.65,-20.89,0,*41
1501322627.01,14561,18.44,74220.8,15.37,-20.59,-21.77,0,*47
1501322628.24,14562,18.44,74226.3,15.35,-21.33,-22.57,0,*4A
1501322629.47,14563,18.44,74220.8,15.31,-21.87,-22.97,0,*4C
1501322630.73,14564,18.44,74222.8,15.33,-19.65,-20.73,0,*46
1501322631.97,14565,18.5,74224.3,15.35,-19.61,-20.93,0,*4B
1501322633.23,14566,18.44,74224.3,15.33,-18.31,-19.13,0,*48
1501322634.47,14567,18.44,74224.8,15.33,-19.13,-20.05,0,*45
1501322635.72,14568,18.44,74222.3,15.33,-18.65,-19.65,0,*46
1501322636.95,14569,18.44,74226.5,15.37,-19.75,-20.89,0,*4B
1501322638.22,14570,18.5,74226.3,15.35,-21.23,-22.47,0,*49
1501322639.47,14571,18.44,74220.8,15.33,-21.13,-22.31,0,*4C
1501322640.71,14572,18.44,74220.0,15.33,-19.91,-20.89,0,*4F
1501322641.92,14573,18.5,74226.0,15.31,-19.37,-20.59,0,*4D
1501322643.12,14574,18.5,74226.3,15.31,-22.67,-23.89,0,*49
1501322644.32,14575,18.44,74226.0,15.27,-21.39,-22.41,0,*42
1501322645.55,14576,18.44,74226.8,15.27,-21.63,-22.77,0,*4B
1501322646.81,14577,18.44,74226.0,15.25,-20.63,-21.83,0,*41
1501322648.03,14578,18.44,74224.8,15.25,-19.95,-21.09,0,*4F
1501322649.27,14579,18.44,74224.0,15.25,-21.39,-22.63,0,*4C
1501322650.52,14580,18.5,74228.0,15.23,-23.19,-24.41,0,*4A
1501322651.77,14581,18.44,74222.8,15.21,-22.07,-23.03,0,*46
1501322653.0,14582,18.44,74220.5,15.15,-22.63,-23.75,0,*41
1501322654.25,14583,18.44,74222.3,15.13,-21.27,-22.31,0,*44
1501322655.48,14584,18.44,74222.0,15.13,-21.97,-23.13,0,*49
1501322656.7,14585,18.44,74220.0,15.13,-19.03,-20.15,0,*4B
1501322657.95,14586,18.44,74222.3,15.15,-18.21,-19.23,0,*40
1501322659.21,14587,18.44,74222.0,15.13,-21.27,-22.47,0,*41
1501322660.4,14588,18.44,74220.3,15.13,-21.43,-22.67,0,*4E
1501322661.66,14589,18.44,74222.8,15.09,-22.17,-23.29,0,*4D
1501322662.88,14590,18.44,74220.0,15.09,-21.27,-22.41,0,*4A
1501322664.11,14591,18.44,74222.0,15.09,-19.75,-20.83,0,*4B
1501322665.33,14592,18.44,74218.3,15.09,-20.49,-21.63,0,*42
1501322666.58,14593,18.44,74226.8,15.09,-20.49,-21.57,0,*44
1501322667.81,14594,18.44,74226.3,15.05,-20.73,-21.87,0,*4B
1501322669.04,14595,18.5,74226.5,15.05,-21.53,-22.67,0,*44
1501322670.3,14596,18.44,74224.0,15.03,-21.67,-22.83,0,*4C
1501322671.56,14597,18.44,74226.5,15.03,-21.03,-22.11,0,*44
1501322672.79,14598,18.44,74222.3,15.01,-20.35,-21.39,0,*44
1501322674.07,14599,18.44,74218.8,15.03,-20.49,-21.53,0,*40
1501322675.33,14600,18.44,74220.3,15.03,-20.63,-21.57,0,*4F
1501322676.59,14601,18.44,74226.0,15.01,-21.23,-22.31,0,*4A
1501322677.79,14602,18.44,74222.5,15.01,-21.47,-22.67,0,*48
1501322679.04,14603,18.44,74222.8,14.95,-21.33,-22.41,0,*42
1501322680.3,14604,18.44,74222.8,14.95,-21.27,-22.27,0,*40
1501322681.56,14605,18.44,74218.8,14.95,-19.81,-20.89,0,*40
1501322682.83,14606,18.44,74222.8,14.95,-19.13,-20.19,0,*41
1501322684.08,14607,18.44,74220.5,14.95,-18.89,-19.75,0,*42
1501322685.31,14608,18.44,74222.8,14.99,-19.47,-20.69,0,*45
1501322686.56,14609,18.44,74220.0,14.99,-19.47,-20.35,0,*4D
1501322687.82,14610,18.44,74220.5,14.99,-19.75,-20.83,0,*49
1501322689.06,14611,18.44,74222.0,14.95,-20.35,-21.13,0,*42
1501322690.28,14612,18.44,74222.8,14.99,-18.21,-19.07,0,*4D
1501322691.5,14613,18.44,74222.3,14.99,-18.17,-19.07,0,*49
1501322692.73,14614,18.44,74222.5,15.03,-18.11,-19.07,0,*4A
1501322694.01,14615,18.44,74222.5,15.03,-18.93,-19.81,0,*4F
1501322695.27,14616,18.44,74222.8,15.01,-19.85,-20.83,0,*40
1501322696.49,14617,18.44,74220.8,15.03,-20.73,-21.73,0,*4E
1501322697.72,14618,18.44,74222.0,15.05,-18.45,-19.31,0,*44
1501322698.95,14619,18.44,74220.5,15.03,-16.03,-16.97,0,*4C
1501322700.24,14620,18.44,74222.0,15.07,-16.27,-17.07,0,*4C
1501322701.49,14621,18.44,74220.5,15.11,-15.81,-16.55,0,*43
1501322702.74,14622,18.44,74218.0,15.11,-17.59,-18.65,0,*4A
1501322703.95,14623,18.44,74218.3,15.13,-16.97,-17.87,0,*49
1501322705.2,14624,18.44,74218.5,15.15,-16.45,-17.41,0,*4D
1501322706.47,14625,18.44,74218.5,15.21,-15.85,-16.75,0,*42
1501322707.68,14626,18.44,74216.8,15.23,-15.75,-16.55,0,*4E
1501322708.94,14627,18.44,74218.0,15.25,-15.25,-16.17,0,*4A
1501322710.17,14628,18.44,74216.3,15.27,-14.89,-15.89,0,*44
1501322711.4,14629,18.44,74218.5,15.31,-15.63,-17.03,0,*47
1501322712.63,14630,18.44,74220.0,15.33,-16.37,-17.69,0,*43
1501322713.84,14631,18.44,74218.5,15.31,-16.41,-17.69,0,*41
1501322715.12,14632,18.44,74218.0,15.33,-16.09,-17.11,0,*43
1501322716.35,14633,18.44,74216.0,15.35,-15.35,-16.37,0,*4D
1501322717.57,14634,18.44,74216.3,15.37,-15.49,-16.37,0,*43
1501322718.82,14635,18.44,74218.3,15.43,-15.21,-16.09,0,*42
1501322720.07,14636,18.44,74220.8,15.43,-14.97,-16.09,0,*4D
1501322721.28,14637,18.44,74218.3,15.47,-15.75,-16.75,0,*4E
1501322722.51,14638,18.44,74222.0,15.47,-15.71,-16.65,0,*44
1501322723.76,14639,18.44,74220.8,15.51,-15.29,-16.27,0,*49
1501322724.99,14640,18.44,74220.0,15.53,-15.67,-16.69,0,*45
1501322726.27,14641,18.5,74224.5,15.55,-16.51,-17.63,0,*4F
1501322727.49,14642,18.44,74222.0,15.53,-17.11,-18.17,0,*43
1501322728.76,14643,18.44,74220.3,15.55,-16.31,-17.21,0,*4D
1501322730.02,14644,18.44,74222.8,15.55,-16.09,-16.93,0,*49
1501322731.26,14645,18.44,74220.5,15.57,-16.65,-17.83,0,*40
1501322732.46,14646,18.44,74220.3,15.57,-16.79,-17.73,0,*41
1501322733.72,14647,18.44,74222.3,15.59,-15.85,-16.75,0,*49
1501322734.95,14648,18.44,74222.8,15.59,-17.31,-18.11,0,*47
1501322736.18,14649,18.44,74218.3,15.59,-17.69,-18.69,0,*44
1501322737.41,14650,18.44,74222.0,15.59,-17.49,-18.41,0,*44
1501322738.64,14651,18.44,74220.8,15.61,-17.11,-17.87,0,*46
1501322739.86,14652,18.44,74216.3,15.61,-16.59,-17.55,0,*47
1501322741.09,14653,18.44,74216.3,15.63,-15.99,-16.83,0,*41
1501322742.34,14654,18.44,74220.0,15.63,-15.71,-16.69,0,*44
1501322743.6,14655,18.44,74220.3,15.63,-16.09,-16.97,0,*48
1501322744.87,14656,18.44,74218.0,15.67,-15.57,-16.23,0,*48
1501322746.12,14657,18.44,74222.3,15.69,-16.31,-17.17,0,*42
1501322747.39,14658,18.44,74218.5,15.71,-17.07,-17.93,0,*4C
1501322748.64,14659,18.44,74218.5,15.71,-17.83,-18.59,0,*48
1501322749.88,14660,18.44,74218.8,15.71,-17.55,-18.25,0,*42
1501322751.12,14661,18.44,74218.3,15.71,-15.99,-16.65,0,*4B
1501322752.37,14662,18.44,74218.3,15.73,-15.35,-16.13,0,*4D
1501322753.6,14663,18.44,74218.8,15.73,-15.81,-16.59,0,*4D
1501322754.87,14664,18.44,74220.8,15.79,-17.21,-17.93,0,*4F
1501322756.07,14665,18.44,74216.8,15.77,-16.75,-17.49,0,*47
1501322757.29,14666,18.44,74216.5,15.77,-16.13,-16.89,0,*49
1501322758.51,14667,18.44,74218.5,15.77,-16.17,-16.93,0,*47
1501322759.79,14668,18.44,74216.8,15.79,-15.57,-16.17,0,*4D
1501322761.04,14669,18.44,74218.0,15.79,-17.03,-17.83,0,*43
1501322762.3,14670,18.44,74214.0,15.81,-16.41,-17.11,0,*40
1501322763.57,14671,18.44,74212.5,15.81,-15.85,-16.69,0,*44
1501322764.83,14672,18.44,74212.5,15.81,-16.41,-17.17,0,*44
1501322766.03,14673,18.44,74214.8,15.83,-16.75,-17.49,0,*4B
1501322767.23,14674,18.44,74216.0,15.83,-16.89,-17.73,0,*46
1501322768.48,14675,18.44,74216.3,15.85,-17.21,-17.87,0,*49
1501322769.71,14676,18.44,74214.5,15.83,-16.97,-17.63,0,*4A
1501322770.94,14677,18.44,74214.3,15.83,-16.75,-17.45,0,*43
1501322772.19,14678,18.44,74214.8,15.85,-16.65,-17.31,0,*48
1501322773.43,14679,18.44,74216.5,15.85,-16.51,-17.31,0,*4E
1501322774.68,14680,18.44,74220.3,15.85,-17.45,-18.17,0,*47
1501322775.93,14681,18.44,74220.0,15.85,-16.79,-17.45,0,*40
1501322777.19,14682,18.44,74222.5,15.85,-17.07,-17.87,0,*45
1501322778.42,14683,18.44,74216.5,15.83,-18.35,-19.17,0,*4B
1501322779.64,14684,18.44,74218.3,15.83,-17.79,-18.65,0,*4F
1501322780.88,14685,18.44,74220.8,15.83,-17.11,-17.93,0,*46
1501322782.13,14686,18.44,74220.3,15.83,-16.27,-17.17,0,*4D
1501322783.36,14687,18.44,74218.8,15.83,-16.97,-17.79,0,*4F
1501322784.61,14688,18.44,74220.3,15.85,-16.41,-17.11,0,*43
1501322785.86,14689,18.44,74220.8,15.85,-16.17,-16.97,0,*4E
1501322787.11,14690,18.44,74220.8,15.85,-16.27,-16.97,0,*45
1501322788.39,14691,18.44,74222.8,15.85,-16.17,-17.11,0,*48
1501322789.61,14692,18.44,74222.8,15.85,-16.83,-17.73,0,*42
1501322790.86,14693,18.44,74224.0,15.89,-17.21,-18.07,0,*4A
1501322792.09,14694,18.44,74222.8,15.85,-16.83,-17.73,0,*44
1501322793.37,14695,18.44,74224.0,15.85,-17.07,-17.97,0,*42
1501322794.62,14696,18.44,74226.0,15.85,-17.41,-18.21,0,*41
1501322795.87,14697,18.44,74224.8,15.85,-17.45,-18.45,0,*46
1501322797.12,14698,18.44,74224.3,15.85,-17.31,-18.31,0,*49
1501322798.35,14699,18.44,74226.0,15.83,-17.03,-18.07,0,*4A
1501322799.58,14700,18.44,74224.0,15.85,-16.41,-17.31,0,*40
1501322800.79,14701,18.44,74228.5,15.83,-16.83,-17.87,0,*44
1501322802.04,14702,18.44,74226.0,15.85,-18.01,-19.13,0,*46
1501322803.28,14703,18.44,74230.8,15.85,-18.01,-19.07,0,*42
1501322804.48,14704,18.44,74232.3,15.83,-18.83,-20.05,0,*41
1501322805.75,14705,18.44,74230.8,15.81,-17.93,-18.93,0,*48
1501322807.03,14706,18.44,74226.5,15.79,-17.55,-18.31,0,*4E
1501322808.31,14707,18.44,74228.5,15.81,-15.43,-16.09,0,*48
1501322809.56,14708,18.44,74230.0,15.85,-15.29,-16.23,0,*47
1501322810.81,14709,18.44,74228.8,15.85,-16.03,-16.69,0,*43
1501322812.06,14710,18.44,74226.5,15.89,-16.17,-16.89,0,*4C
1501322813.28,14711,18.44,74226.5,15.91,-15.53,-16.27,0,*43
1501322814.53,14712,18.44,74226.0,15.91,-15.43,-16.31,0,*46
1501322815.76,14713,18.44,74226.3,15.91,-16.41,-17.21,0,*46
1501322817.03,14714,18.44,74226.8,15.93,-17.21,-18.35,0,*4E
1501322818.27,14715,18.44,74228.5,15.93,-17.93,-18.79,0,*4E
1501322819.49,14716,18.44,74228.8,15.91,-17.25,-18.17,0,*4A
1501322820.73,14717,18.44,74230.0,15.91,-17.11,-18.01,0,*4B
1501322821.98,14718,18.44,74228.3,15.89,-16.13,-16.93,0,*4B
1501322823.24,14719,18.44,74232.8,15.91,-16.09,-17.03,0,*40
1501322824.46,14720,18.44,74234.0,15.91,-15.85,-16.55,0,*4F
1501322825.71,14721,18.44,74234.8,15.93,-15.29,-16.13,0,*48
1501322826.95,14722,18.44,74232.3,15.97,-14.79,-15.63,0,*4F
1501322828.21,14723,18.44,74228.8,15.97,-15.15,-16.09,0,*4A
1501322829.44,14724,18.44,74232.5,15.99,-14.83,-15.75,0,*45
1501322830.64,14725,18.44,74236.0,15.99,-15.71,-16.45,0,*48
1501322831.89,14726,18.44,74228.8,16.01,-14.15,-14.83,0,*42
1501322833.13,14727,18.44,74234.3,16.05,-14.61,-15.25,0,*49
1501322834.35,14728,18.44,74234.3,16.07,-14.33,-15.01,0,*45
1501322835.57,14729,18.5,74232.0,16.07,-14.33,-14.97,0,*4A
1501322836.81,14730,18.44,74228.5,16.11,-14.51,-15.25,0,*49
1501322838.05,14731,18.5,74232.8,16.13,-15.25,-15.99,0,*4F
1501322839.31,14732,18.44,74230.8,16.13,-14.79,-15.53,0,*42
1501322840.55,14733,18.44,74228.3,16.17,-14.37,-15.07,0,*4C
1501322841.79,14734,18.44,74230.5,16.17,-15.63,-16.41,0,*4A
1501322843.05,14735,18.44,74230.8,16.17,-16.09,-16.83,0,*4A
1501322844.29,14736,18.5,74234.8,16.19,-16.59,-17.41,0,*4D
1501322845.55,14737,18.44,74232.3,16.17,-16.37,-17.17,0,*49
1501322846.81,14738,18.5,74232.0,16.17,-18.59,-19.71,0,*4E
1501322848.02,14739,18.44,74228.5,16.15,-19.99,-20.69,0,*43
1501322849.26,14740,18.44,74230.8,16.13,-19.75,-20.63,0,*43
1501322850.53,14741,18.44,74230.5,16.05,-20.35,-20.99,0,*4E
1501322851.75,14742,18.44,74230.0,16.05,-18.49,-19.51,0,*43
1501322852.97,14743,18.44,74228.8,16.01,-18.83,-19.75,0,*46
1501322854.22,14744,18.5,74234.3,16.03,-18.35,-19.27,0,*49
1501322855.44,14745,18.44,74230.5,15.99,-18.89,-19.47,0,*49
1501322856.67,14746,18.5,74228.8,15.99,-16.45,-17.21,0,*4A
1501322857.87,14747,18.44,74228.0,15.99,-15.75,-16.37,0,*4D
1501322859.1,14748,18.44,74230.8,15.99,-15.63,-16.23,0,*40
1501322860.32,14749,18.44,74230.0,16.03,-15.39,-16.03,0,*4C
1501322861.54,14750,18.5,74232.3,16.03,-16.59,-17.45,0,*42
1501322862.77,14751,18.5,74232.5,16.05,-19.37,-20.29,0,*4C
1501322864.01,14752,18.44,74230.5,16.03,-19.27,-20.25,0,*44
1501322865.23,14753,18.44,74230.8,16.01,-20.09,-21.17,0,*41
1501322866.49,14754,18.5,74234.0,15.97,-21.87,-22.93,0,*42
1501322867.7,14755,18.44,74228.5,15.93,-21.13,-22.07,0,*47
1501322868.98,14756,18.44,74230.0,15.89,-22.17,-23.53,0,*48
1501322870.2,14757,18.44,74230.0,15.83,-22.57,-23.69,0,*4E
1501322871.43,14758,18.44,74228.5,15.79,-20.89,-21.77,0,*48
1501322872.65,14759,18.44,74230.8,15.77,-21.13,-22.21,0,*45
1501322873.9,14760,18.44,74226.0,15.73,-21.33,-22.21,0,*49
1501322875.13,14761,18.44,74228.0,15.71,-21.47,-22.57,0,*48
1501322876.32,14762,18.44,74228.0,15.69,-21.39,-22.37,0,*4D
1501322877.58,14763,18.44,74228.5,15.63,-19.99,-20.79,0,*4F
1501322878.78,14764,18.44,74230.8,15.61,-19.47,-20.43,0,*40
1501322880.04,14765,18.44,74226.8,15.63,-18.93,-19.71,0,*40
1501322881.29,14766,18.44,74230.8,15.63,-18.01,-18.79,0,*41
1501322882.54,14767,18.44,74230.5,15.63,-16.97,-17.59,0,*4C
1501322883.8,14768,18.44,74232.8,15.63,-16.89,-17.63,0,*45
1501322885.05,14769,18.44,74230.3,15.63,-16.97,-17.63,0,*4B
1501322886.33,14770,18.44,74232.3,15.67,-15.89,-16.65,0,*4C
1501322887.55,14771,18.44,74228.0,15.69,-15.63,-16.31,0,*46
1501322888.83,14772,18.44,74228.8,15.71,-14.75,-15.39,0,*41
1501322890.09,14773,18.44,74230.8,15.73,-13.97,-14.51,0,*46
1501322891.29,14774,18.44,74228.8,15.77,-14.29,-14.89,0,*42
1501322892.54,14775,18.44,74228.8,15.81,-15.07,-15.81,0,*4E
1501322893.78,14776,18.44,74228.0,15.81,-14.69,-15.35,0,*4B
1501322895.03,14777,18.44,74228.5,15.85,-15.35,-16.03,0,*40